Time,TemperatureF,DewpointF,PressureIn,WindDirection,WindDirectionDegrees,WindSpeedMPH,WindSpeedGustMPH,Humidity,HourlyPrecipIn,Conditions,Clouds,dailyrainin,SoftwareType,DateUTC
2013-07-04 00:00:00,61.3,58.0,30.13,SSE,155,0.0,0.0,89,0.00,,,0.00,Wunderground v.1.15,2013-07-04 05:00:00,
2013-07-04 00:10:00,61.2,57.9,30.12,SSE,155,0.0,0.0,89,0.00,,,0.00,Wunderground v.1.15,2013-07-04 05:10:00,
2013-07-04 00:15:00,61.1,57.8,30.12,SSE,155,0.0,0.0,89,0.00,,,0.00,Wunderground v.1.15,2013-07-04 05:15:00,
2013-07-04 00:25:00,60.8,57.5,30.12,SSE,155,0.0,0.0,89,0.00,,,0.00,Wunderground v.1.15,2013-07-04 05:25:00,
2013-07-04 00:35:00,60.5,56.9,30.12,SSE,155,0.0,0.0,88,0.00,,,0.00,Wunderground v.1.15,2013-07-04 05:35:00,
2013-07-04 00:45:00,60.1,56.8,30.12,SSE,155,0.0,0.0,89,0.00,,,0.00,Wunderground v.1.15,2013-07-04 05:45:00,
2013-07-04 00:50:00,60.0,56.7,30.11,SSE,155,0.0,0.0,89,0.00,,,0.00,Wunderground v.1.15,2013-07-04 05:50:00,
2013-07-04 01:00:00,59.8,56.6,30.12,SSE,155,0.0,0.0,89,0.00,,,0.00,Wunderground v.1.15,2013-07-04 06:00:00,
2013-07-04 01:10:00,59.6,56.4,30.12,SSE,155,0.0,0.0,89,0.00,,,0.00,Wunderground v.1.15,2013-07-04 06:10:00,
2013-07-04 01:15:00,59.4,56.2,30.11,SSE,155,0.0,0.0,89,0.00,,,0.00,Wunderground v.1.15,2013-07-04 06:15:00,
2013-07-04 01:25:00,59.2,56.0,30.11,SSE,155,0.0,0.0,89,0.00,,,0.00,Wunderground v.1.15,2013-07-04 06:25:00,
2013-07-04 01:35:00,59.0,55.8,30.12,SSE,155,0.0,0.0,89,0.00,,,0.00,Wunderground v.1.15,2013-07-04 06:35:00,
2013-07-04 01:40:00,58.9,55.7,30.12,SSE,155,0.0,0.0,89,0.00,,,0.00,Wunderground v.1.15,2013-07-04 06:40:00,
2013-07-04 01:50:00,58.7,55.5,30.12,SSE,155,0.0,0.0,89,0.00,,,0.00,Wunderground v.1.15,2013-07-04 06:50:00,
2013-07-04 02:00:00,58.6,55.7,30.12,SSE,155,0.0,0.0,90,0.00,,,0.00,Wunderground v.1.15,2013-07-04 07:00:00,
2013-07-04 02:10:00,58.5,55.6,30.12,SSE,155,0.0,0.0,90,0.00,,,0.00,Wunderground v.1.15,2013-07-04 07:10:00,
2013-07-04 02:20:00,58.4,55.5,30.11,SSE,155,0.0,0.0,90,0.00,,,0.00,Wunderground v.1.15,2013-07-04 07:20:00,
2013-07-04 02:25:00,58.4,55.5,30.11,SSE,154,0.0,0.0,90,0.00,,,0.00,Wunderground v.1.15,2013-07-04 07:25:00,
2013-07-04 02:35:00,58.4,55.5,30.11,SSE,153,0.0,0.0,90,0.00,,,0.00,Wunderground v.1.15,2013-07-04 07:35:00,
2013-07-04 02:40:00,58.4,55.5,30.12,SSE,153,0.0,0.0,90,0.00,,,0.00,Wunderground v.1.15,2013-07-04 07:40:00,
2013-07-04 02:50:00,58.3,55.4,30.11,SSE,153,0.0,0.0,90,0.00,,,0.00,Wunderground v.1.15,2013-07-04 07:50:00,
2013-07-04 03:00:00,58.2,55.3,30.11,SSE,153,0.0,0.0,90,0.00,,,0.00,Wunderground v.1.15,2013-07-04 08:00:00,
2013-07-04 03:05:00,58.1,55.2,30.12,SSE,153,0.0,0.0,90,0.00,,,0.00,Wunderground v.1.15,2013-07-04 08:05:00,
2013-07-04 03:10:00,58.1,55.2,30.12,SSE,153,0.0,0.0,90,0.00,,,0.00,Wunderground v.1.15,2013-07-04 08:10:00,
2013-07-04 03:20:00,58.0,55.4,30.12,SSE,153,0.0,0.0,91,0.00,,,0.00,Wunderground v.1.15,2013-07-04 08:20:00,
2013-07-04 03:25:00,58.0,55.4,30.12,SSE,153,0.0,0.0,91,0.00,,,0.00,Wunderground v.1.15,2013-07-04 08:25:00,
2013-07-04 03:35:00,58.0,55.4,30.12,SSE,151,0.0,0.0,91,0.00,,,0.00,Wunderground v.1.15,2013-07-04 08:35:00,
2013-07-04 03:40:00,58.1,55.5,30.12,SSE,149,0.0,0.0,91,0.00,,,0.00,Wunderground v.1.15,2013-07-04 08:40:00,
2013-07-04 03:50:00,58.0,55.4,30.12,SSE,148,0.0,0.0,91,0.00,,,0.00,Wunderground v.1.15,2013-07-04 08:50:00,
2013-07-04 03:55:00,58.0,55.4,30.12,SSE,148,0.0,0.0,91,0.00,,,0.00,Wunderground v.1.15,2013-07-04 08:55:00,
2013-07-04 04:05:00,57.8,54.9,30.12,SSE,148,0.0,0.0,90,0.00,,,0.00,Wunderground v.1.15,2013-07-04 09:05:00,
2013-07-04 04:15:00,57.7,54.8,30.12,SSE,148,0.0,0.0,90,0.00,,,0.00,Wunderground v.1.15,2013-07-04 09:15:00,
2013-07-04 04:25:00,57.7,55.1,30.12,SSE,148,0.0,0.0,91,0.00,,,0.00,Wunderground v.1.15,2013-07-04 09:25:00,
2013-07-04 04:30:00,57.6,55.0,30.13,SSE,148,0.0,0.0,91,0.00,,,0.00,Wunderground v.1.15,2013-07-04 09:30:00,
2013-07-04 04:35:00,57.6,55.0,30.13,SSE,148,0.0,0.0,91,0.00,,,0.00,Wunderground v.1.15,2013-07-04 09:35:00,
2013-07-04 04:45:00,57.4,54.8,30.13,SSE,148,0.0,0.0,91,0.00,,,0.00,Wunderground v.1.15,2013-07-04 09:45:00,
2013-07-04 04:55:00,57.2,54.3,30.13,SSE,148,0.0,0.0,90,0.00,,,0.00,Wunderground v.1.15,2013-07-04 09:55:00,
2013-07-04 05:00:00,57.0,54.1,30.13,SSE,148,0.0,0.0,90,0.00,,,0.00,Wunderground v.1.15,2013-07-04 10:00:00,
2013-07-04 05:10:00,56.8,53.9,30.13,SSE,148,0.0,0.0,90,0.00,,,0.00,Wunderground v.1.15,2013-07-04 10:10:00,
2013-07-04 05:20:00,56.7,53.8,30.13,SSE,148,0.0,0.0,90,0.00,,,0.00,Wunderground v.1.15,2013-07-04 10:20:00,
2013-07-04 05:25:00,56.7,54.1,30.13,SSE,148,0.0,0.0,91,0.00,,,0.00,Wunderground v.1.15,2013-07-04 10:25:00,
2013-07-04 05:35:00,56.8,54.2,30.13,SSE,148,0.0,0.0,91,0.00,,,0.00,Wunderground v.1.15,2013-07-04 10:35:00,
2013-07-04 05:45:00,56.8,54.2,30.13,SSE,148,0.0,0.0,91,0.00,,,0.00,Wunderground v.1.15,2013-07-04 10:45:00,
2013-07-04 05:50:00,56.7,54.1,30.13,SSE,148,0.0,0.0,91,0.00,,,0.00,Wunderground v.1.15,2013-07-04 10:50:00,
2013-07-04 06:00:00,56.8,54.2,30.13,SSE,148,0.0,0.0,91,0.00,,,0.00,Wunderground v.1.15,2013-07-04 11:00:00,
2013-07-04 06:10:00,56.9,54.3,30.13,SSE,148,0.0,0.0,91,0.00,,,0.00,Wunderground v.1.15,2013-07-04 11:10:00,
2013-07-04 06:20:00,57.1,54.5,30.13,SSE,148,0.0,0.0,91,0.00,,,0.00,Wunderground v.1.15,2013-07-04 11:20:00,
2013-07-04 06:25:00,57.3,54.7,30.13,SSE,148,0.0,0.0,91,0.00,,,0.00,Wunderground v.1.15,2013-07-04 11:25:00,
2013-07-04 06:35:00,57.6,55.3,30.13,SSE,148,0.0,0.0,92,0.00,,,0.00,Wunderground v.1.15,2013-07-04 11:35:00,
2013-07-04 06:40:00,57.8,55.5,30.13,SSE,148,0.0,0.0,92,0.00,,,0.00,Wunderground v.1.15,2013-07-04 11:40:00,
2013-07-04 06:50:00,58.1,55.8,30.13,SSE,148,0.0,0.0,92,0.00,,,0.00,Wunderground v.1.15,2013-07-04 11:50:00,
2013-07-04 07:00:00,58.5,56.2,30.14,SSE,148,0.0,0.0,92,0.00,,,0.00,Wunderground v.1.15,2013-07-04 12:00:00,
2013-07-04 07:10:00,59.5,57.2,30.14,SSE,148,0.0,0.0,92,0.00,,,0.00,Wunderground v.1.15,2013-07-04 12:10:00,
2013-07-04 07:15:00,60.2,57.9,30.14,SSE,148,0.0,0.0,92,0.00,,,0.00,Wunderground v.1.15,2013-07-04 12:15:00,
2013-07-04 07:20:00,60.9,58.6,30.15,SSE,148,0.0,0.0,92,0.00,,,0.00,Wunderground v.1.15,2013-07-04 12:20:00,
2013-07-04 07:30:00,62.3,59.9,30.15,SSE,148,0.0,0.0,92,0.00,,,0.00,Wunderground v.1.15,2013-07-04 12:30:00,
2013-07-04 07:40:00,64.0,61.6,30.15,SSE,148,0.0,0.0,92,0.00,,,0.00,Wunderground v.1.15,2013-07-04 12:40:00,
2013-07-04 07:45:00,65.0,62.9,30.15,SSE,148,0.0,0.0,93,0.00,,,0.00,Wunderground v.1.15,2013-07-04 12:45:00,
2013-07-04 07:55:00,66.3,63.9,30.15,SSE,148,0.0,1.0,92,0.00,,,0.00,Wunderground v.1.15,2013-07-04 12:55:00,
2013-07-04 08:00:00,67.1,64.4,30.15,SSE,148,1.0,3.0,91,0.00,,,0.00,Wunderground v.1.15,2013-07-04 13:00:00,
2013-07-04 08:10:00,68.8,63.1,30.15,SSE,148,2.0,3.0,82,0.00,,,0.00,Wunderground v.1.15,2013-07-04 13:10:00,
2013-07-04 08:20:00,70.3,63.1,30.16,SSE,148,2.0,2.0,78,0.00,,,0.00,Wunderground v.1.15,2013-07-04 13:20:00,
2013-07-04 08:25:00,71.2,62.9,30.16,SSE,149,2.0,2.0,75,0.00,,,0.00,Wunderground v.1.15,2013-07-04 13:25:00,
2013-07-04 08:35:00,72.8,64.4,30.16,SSE,150,2.0,2.0,75,0.00,,,0.00,Wunderground v.1.15,2013-07-04 13:35:00,
2013-07-04 08:40:00,73.5,63.1,30.16,SSE,150,2.0,2.0,70,0.00,,,0.00,Wunderground v.1.15,2013-07-04 13:40:00,
2013-07-04 08:50:00,75.1,63.4,30.16,SSE,150,1.0,1.0,67,0.00,,,0.00,Wunderground v.1.15,2013-07-04 13:50:00,
2013-07-04 09:00:00,76.0,63.8,30.16,SSE,153,1.0,1.0,66,0.00,,,0.00,Wunderground v.1.15,2013-07-04 14:00:00,
2013-07-04 09:05:00,76.6,63.5,30.16,SSE,153,1.0,1.0,64,0.00,,,0.00,Wunderground v.1.15,2013-07-04 14:05:00,
2013-07-04 09:15:00,77.8,63.3,30.16,South,179,2.0,4.0,61,0.00,,,0.00,Wunderground v.1.15,2013-07-04 14:15:00,
2013-07-04 09:20:00,78.5,63.0,30.16,South,184,3.0,3.0,59,0.00,,,0.00,Wunderground v.1.15,2013-07-04 14:20:00,
2013-07-04 09:30:00,79.7,64.6,30.16,SSW,195,3.0,3.0,60,0.00,,,0.00,Wunderground v.1.15,2013-07-04 14:30:00,
2013-07-04 09:40:00,80.5,65.3,30.16,SSW,208,4.0,4.0,60,0.00,,,0.00,Wunderground v.1.15,2013-07-04 14:40:00,
2013-07-04 09:45:00,80.8,62.6,30.16,SSW,205,4.0,4.0,54,0.00,,,0.00,Wunderground v.1.15,2013-07-04 14:45:00,
2013-07-04 09:55:00,81.0,62.3,30.16,South,191,1.0,3.0,53,0.00,,,0.00,Wunderground v.1.15,2013-07-04 14:55:00,
2013-07-04 10:00:00,81.3,62.0,30.16,South,182,2.0,2.0,52,0.00,,,0.00,Wunderground v.1.15,2013-07-04 15:00:00,
2013-07-04 10:10:00,81.8,61.9,30.15,South,181,1.0,3.0,51,0.00,,,0.00,Wunderground v.1.15,2013-07-04 15:10:00,
2013-07-04 10:20:00,81.8,61.9,30.16,South,169,3.0,5.0,51,0.00,,,0.00,Wunderground v.1.15,2013-07-04 15:20:00,
2013-07-04 10:25:00,81.7,62.4,30.16,SSE,163,2.0,5.0,52,0.00,,,0.00,Wunderground v.1.15,2013-07-04 15:25:00,
2013-07-04 10:35:00,81.5,62.7,30.15,SE,130,3.0,4.0,53,0.00,,,0.00,Wunderground v.1.15,2013-07-04 15:35:00,
2013-07-04 10:40:00,81.3,60.3,30.16,SE,136,2.0,5.0,49,0.00,,,0.00,Wunderground v.1.15,2013-07-04 15:40:00,
2013-07-04 10:50:00,80.9,63.7,30.15,SE,126,2.0,2.0,56,0.00,,,0.00,Wunderground v.1.15,2013-07-04 15:50:00,
2013-07-04 10:55:00,81.1,60.1,30.15,ESE,122,2.0,4.0,49,0.00,,,0.00,Wunderground v.1.15,2013-07-04 15:55:00,
2013-07-04 11:05:00,81.0,61.2,30.15,SSE,153,3.0,5.0,51,0.00,,,0.00,Wunderground v.1.15,2013-07-04 16:05:00,
2013-07-04 11:10:00,81.1,62.3,30.15,ESE,123,3.0,3.0,53,0.00,,,0.00,Wunderground v.1.15,2013-07-04 16:10:00,
2013-07-04 11:20:00,81.3,60.9,30.15,ESE,119,3.0,3.0,50,0.00,,,0.00,Wunderground v.1.15,2013-07-04 16:20:00,
2013-07-04 11:25:00,81.1,60.1,30.15,South,171,3.0,3.0,49,0.00,,,0.00,Wunderground v.1.15,2013-07-04 16:25:00,
2013-07-04 11:35:00,81.1,61.8,30.15,SE,129,2.0,3.0,52,0.00,,,0.00,Wunderground v.1.15,2013-07-04 16:35:00,
2013-07-04 11:45:00,81.0,60.6,30.15,SSE,157,2.0,7.0,50,0.00,,,0.00,Wunderground v.1.15,2013-07-04 16:45:00,
2013-07-04 11:50:00,80.7,62.0,30.15,SSE,150,2.0,2.0,53,0.00,,,0.00,Wunderground v.1.15,2013-07-04 16:50:00,
2013-07-04 12:00:00,80.4,61.7,30.15,ESE,123,3.0,5.0,53,0.00,,,0.00,Wunderground v.1.15,2013-07-04 17:00:00,
2013-07-04 12:05:00,80.3,61.1,30.15,SE,130,4.0,8.0,52,0.00,,,0.00,Wunderground v.1.15,2013-07-04 17:05:00,
2013-07-04 12:15:00,80.3,64.2,30.15,SE,136,3.0,4.0,58,0.00,,,0.00,Wunderground v.1.15,2013-07-04 17:15:00,
2013-07-04 12:25:00,80.8,63.6,30.15,ESE,109,3.0,3.0,56,0.00,,,0.00,Wunderground v.1.15,2013-07-04 17:25:00,
2013-07-04 12:30:00,80.9,61.1,30.15,ESE,123,3.0,3.0,51,0.00,,,0.00,Wunderground v.1.15,2013-07-04 17:30:00,
2013-07-04 12:40:00,81.1,62.9,30.14,ESE,116,3.0,3.0,54,0.00,,,0.00,Wunderground v.1.15,2013-07-04 17:40:00,
2013-07-04 12:45:00,81.2,62.4,30.15,SE,130,3.0,3.0,53,0.00,,,0.00,Wunderground v.1.15,2013-07-04 17:45:00,
2013-07-04 12:55:00,81.5,62.7,30.14,East,94,3.0,4.0,53,0.00,,,0.00,Wunderground v.1.15,2013-07-04 17:55:00,
2013-07-04 13:05:00,81.5,63.3,30.14,SE,138,2.0,6.0,54,0.00,,,0.00,Wunderground v.1.15,2013-07-04 18:05:00,
2013-07-04 13:10:00,81.4,60.4,30.14,ESE,121,4.0,4.0,49,0.00,,,0.00,Wunderground v.1.15,2013-07-04 18:10:00,
2013-07-04 13:15:00,81.4,61.5,30.14,SE,128,4.0,7.0,51,0.00,,,0.00,Wunderground v.1.15,2013-07-04 18:15:00,
2013-07-04 13:25:00,80.9,61.1,30.14,SSE,148,5.0,7.0,51,0.00,,,0.00,Wunderground v.1.15,2013-07-04 18:25:00,
2013-07-04 13:35:00,80.7,63.5,30.13,ESE,123,3.0,5.0,56,0.00,,,0.00,Wunderground v.1.15,2013-07-04 18:35:00,
2013-07-04 13:40:00,80.7,63.0,30.14,SE,136,2.0,4.0,55,0.00,,,0.00,Wunderground v.1.15,2013-07-04 18:40:00,
2013-07-04 13:50:00,80.7,61.4,30.14,SE,124,4.0,4.0,52,0.00,,,0.00,Wunderground v.1.15,2013-07-04 18:50:00,
2013-07-04 13:55:00,80.5,61.3,30.13,ESE,119,4.0,4.0,52,0.00,,,0.00,Wunderground v.1.15,2013-07-04 18:55:00,
2013-07-04 14:05:00,80.3,60.0,30.14,SE,138,3.0,4.0,50,0.00,,,0.00,Wunderground v.1.15,2013-07-04 19:05:00,
2013-07-04 14:10:00,80.1,59.2,30.13,SE,125,3.0,3.0,49,0.00,,,0.00,Wunderground v.1.15,2013-07-04 19:10:00,
2013-07-04 14:20:00,79.6,61.5,30.13,ESE,121,3.0,3.0,54,0.00,,,0.00,Wunderground v.1.15,2013-07-04 19:20:00,
2013-07-04 14:25:00,79.5,61.4,30.13,SE,129,3.0,4.0,54,0.00,,,0.00,Wunderground v.1.15,2013-07-04 19:25:00,
2013-07-04 14:35:00,79.6,62.0,30.13,ESE,116,4.0,4.0,55,0.00,,,0.00,Wunderground v.1.15,2013-07-04 19:35:00,
2013-07-04 14:40:00,79.8,62.2,30.13,SE,132,3.0,3.0,55,0.00,,,0.00,Wunderground v.1.15,2013-07-04 19:40:00,
2013-07-04 14:50:00,80.3,63.7,30.12,ESE,109,3.0,8.0,57,0.00,,,0.00,Wunderground v.1.15,2013-07-04 19:50:00,
2013-07-04 14:55:00,80.4,61.7,30.12,SE,137,3.0,8.0,53,0.00,,,0.00,Wunderground v.1.15,2013-07-04 19:55:00,
2013-07-04 15:05:00,80.8,63.1,30.12,SE,136,2.0,3.0,55,0.00,,,0.00,Wunderground v.1.15,2013-07-04 20:05:00,
2013-07-04 15:10:00,81.0,62.8,30.12,SE,135,3.0,9.0,54,0.00,,,0.00,Wunderground v.1.15,2013-07-04 20:10:00,
2013-07-04 15:20:00,80.7,63.0,30.11,ESE,105,2.0,2.0,55,0.00,,,0.00,Wunderground v.1.15,2013-07-04 20:20:00,
2013-07-04 15:25:00,80.6,62.9,30.11,East,92,1.0,2.0,55,0.00,,,0.00,Wunderground v.1.15,2013-07-04 20:25:00,
2013-07-04 15:30:00,80.5,63.4,30.11,ESE,123,2.0,2.0,56,0.00,,,0.00,Wunderground v.1.15,2013-07-04 20:30:00,
2013-07-04 15:40:00,80.5,61.8,30.11,SE,132,1.0,3.0,53,0.00,,,0.00,Wunderground v.1.15,2013-07-04 20:40:00,
2013-07-04 15:45:00,80.4,60.6,30.10,ESE,121,2.0,4.0,51,0.00,,,0.00,Wunderground v.1.15,2013-07-04 20:45:00,
2013-07-04 15:55:00,80.5,62.3,30.10,ESE,108,1.0,1.0,54,0.00,,,0.00,Wunderground v.1.15,2013-07-04 20:55:00,
2013-07-04 16:00:00,80.3,60.5,30.10,SE,128,1.0,4.0,51,0.00,,,0.00,Wunderground v.1.15,2013-07-04 21:00:00,
2013-07-04 16:10:00,79.7,61.1,30.10,ESE,116,2.0,2.0,53,0.00,,,0.00,Wunderground v.1.15,2013-07-04 21:10:00,
2013-07-04 16:15:00,79.4,60.2,30.10,SE,128,2.0,2.0,52,0.00,,,0.00,Wunderground v.1.15,2013-07-04 21:15:00,
2013-07-04 16:25:00,79.2,61.1,30.10,ESE,119,1.0,5.0,54,0.00,,,0.00,Wunderground v.1.15,2013-07-04 21:25:00,
2013-07-04 16:30:00,79.1,62.1,30.10,ESE,119,1.0,1.0,56,0.00,,,0.00,Wunderground v.1.15,2013-07-04 21:30:00,
2013-07-04 16:40:00,79.1,62.1,30.10,ESE,115,1.0,1.0,56,0.00,,,0.00,Wunderground v.1.15,2013-07-04 21:40:00,
2013-07-04 16:45:00,79.1,61.5,30.10,ESE,105,1.0,1.0,55,0.00,,,0.00,Wunderground v.1.15,2013-07-04 21:45:00,
2013-07-04 16:55:00,78.8,62.8,30.10,ESE,116,1.0,2.0,58,0.00,,,0.00,Wunderground v.1.15,2013-07-04 21:55:00,
2013-07-04 17:00:00,78.7,60.7,30.10,ESE,121,1.0,1.0,54,0.00,,,0.00,Wunderground v.1.15,2013-07-04 22:00:00,
2013-07-04 17:05:00,78.6,61.6,30.09,ESE,121,1.0,1.0,56,0.00,,,0.00,Wunderground v.1.15,2013-07-04 22:05:00,
2013-07-04 17:15:00,78.4,61.4,30.09,ESE,109,0.0,0.0,56,0.00,,,0.00,Wunderground v.1.15,2013-07-04 22:15:00,
2013-07-04 17:20:00,78.2,61.2,30.09,ESE,109,0.0,0.0,56,0.00,,,0.00,Wunderground v.1.15,2013-07-04 22:20:00,
2013-07-04 17:30:00,78.1,61.6,30.09,ESE,109,0.0,0.0,57,0.00,,,0.00,Wunderground v.1.15,2013-07-04 22:30:00,
2013-07-04 17:35:00,78.1,62.1,30.09,ESE,109,0.0,0.0,58,0.00,,,0.00,Wunderground v.1.15,2013-07-04 22:35:00,
2013-07-04 17:45:00,78.1,62.1,30.08,ESE,109,0.0,0.0,58,0.00,,,0.00,Wunderground v.1.15,2013-07-04 22:45:00,
2013-07-04 17:50:00,78.0,61.5,30.09,ESE,109,0.0,0.0,57,0.00,,,0.00,Wunderground v.1.15,2013-07-04 22:50:00,
2013-07-04 18:00:00,77.8,62.3,30.08,ESE,109,0.0,0.0,59,0.00,,,0.00,Wunderground v.1.15,2013-07-04 23:00:00,
2013-07-04 18:05:00,77.7,61.7,30.08,ESE,109,0.0,0.0,58,0.00,,,0.00,Wunderground v.1.15,2013-07-04 23:05:00,
2013-07-04 18:15:00,77.5,62.0,30.08,ESE,109,0.0,0.0,59,0.00,,,0.00,Wunderground v.1.15,2013-07-04 23:15:00,
2013-07-04 18:20:00,77.5,62.0,30.08,ESE,109,0.0,0.0,59,0.00,,,0.00,Wunderground v.1.15,2013-07-04 23:20:00,
2013-07-04 18:25:00,77.4,62.4,30.08,ESE,109,0.0,0.0,60,0.00,,,0.00,Wunderground v.1.15,2013-07-04 23:25:00,
2013-07-04 18:35:00,77.3,62.8,30.08,ESE,109,0.0,0.0,61,0.00,,,0.00,Wunderground v.1.15,2013-07-04 23:35:00,
2013-07-04 18:40:00,77.1,62.1,30.08,ESE,109,0.0,0.0,60,0.00,,,0.00,Wunderground v.1.15,2013-07-04 23:40:00,
2013-07-04 18:50:00,76.9,62.9,30.08,ESE,109,0.0,0.0,62,0.00,,,0.00,Wunderground v.1.15,2013-07-04 23:50:00,
2013-07-04 18:55:00,76.8,63.2,30.08,ESE,109,0.0,0.0,63,0.00,,,0.00,Wunderground v.1.15,2013-07-04 23:55:00,
2013-07-04 19:05:00,76.6,62.1,30.09,ESE,109,0.0,0.0,61,0.00,,,0.00,Wunderground v.1.15,2013-07-05 00:05:00,
2013-07-04 19:10:00,76.5,63.0,30.09,ESE,109,0.0,0.0,63,0.00,,,0.00,Wunderground v.1.15,2013-07-05 00:10:00,
2013-07-04 19:20:00,76.1,63.0,30.08,ESE,109,0.0,0.0,64,0.00,,,0.00,Wunderground v.1.15,2013-07-05 00:20:00,
2013-07-04 19:25:00,75.8,62.8,30.08,ESE,109,0.0,0.0,64,0.00,,,0.00,Wunderground v.1.15,2013-07-05 00:25:00,
2013-07-04 19:35:00,75.3,62.7,30.08,ESE,109,0.0,0.0,65,0.00,,,0.00,Wunderground v.1.15,2013-07-05 00:35:00,
2013-07-04 19:40:00,75.2,63.5,30.08,ESE,109,0.0,0.0,67,0.00,,,0.00,Wunderground v.1.15,2013-07-05 00:40:00,
2013-07-04 19:45:00,74.9,62.8,30.08,ESE,109,0.0,0.0,66,0.00,,,0.00,Wunderground v.1.15,2013-07-05 00:45:00,
2013-07-04 19:55:00,74.4,62.7,30.08,ESE,109,0.0,0.0,67,0.00,,,0.00,Wunderground v.1.15,2013-07-05 00:55:00,
2013-07-04 20:00:00,74.0,62.3,30.08,ESE,109,0.0,0.0,67,0.00,,,0.00,Wunderground v.1.15,2013-07-05 01:00:00,
2013-07-04 20:10:00,73.4,61.8,30.08,ESE,109,0.0,0.0,67,0.00,,,0.00,Wunderground v.1.15,2013-07-05 01:10:00,
2013-07-04 20:15:00,73.1,61.9,30.08,ESE,109,0.0,0.0,68,0.00,,,0.00,Wunderground v.1.15,2013-07-05 01:15:00,
2013-07-04 20:25:00,72.4,62.5,30.08,ESE,109,0.0,0.0,71,0.00,,,0.00,Wunderground v.1.15,2013-07-05 01:25:00,
2013-07-04 20:30:00,72.0,62.5,30.08,ESE,107,0.0,0.0,72,0.00,,,0.00,Wunderground v.1.15,2013-07-05 01:30:00,
2013-07-04 20:40:00,71.3,61.4,30.08,ESE,109,0.0,0.0,71,0.00,,,0.00,Wunderground v.1.15,2013-07-05 01:40:00,
2013-07-04 20:45:00,71.0,60.7,30.08,ESE,109,0.0,0.0,70,0.00,,,0.00,Wunderground v.1.15,2013-07-05 01:45:00,
2013-07-04 20:55:00,70.5,60.6,30.08,ESE,109,0.0,0.0,71,0.00,,,0.00,Wunderground v.1.15,2013-07-05 01:55:00,
2013-07-04 21:00:00,70.3,60.4,30.08,ESE,107,0.0,0.0,71,0.00,,,0.00,Wunderground v.1.15,2013-07-05 02:00:00,
2013-07-04 21:10:00,69.9,60.5,30.08,ESE,107,0.0,0.0,72,0.00,,,0.00,Wunderground v.1.15,2013-07-05 02:10:00,
2013-07-04 21:15:00,69.7,60.3,30.08,ESE,105,0.0,0.0,72,0.00,,,0.00,Wunderground v.1.15,2013-07-05 02:15:00,
2013-07-04 21:25:00,69.4,60.4,30.09,ESE,104,0.0,0.0,73,0.00,,,0.00,Wunderground v.1.15,2013-07-05 02:25:00,
2013-07-04 21:30:00,69.2,60.6,30.09,ESE,105,0.0,0.0,74,0.00,,,0.00,Wunderground v.1.15,2013-07-05 02:30:00,
2013-07-04 21:35:00,69.1,60.5,30.09,ESE,105,0.0,0.0,74,0.00,,,0.00,Wunderground v.1.15,2013-07-05 02:35:00,
2013-07-04 21:45:00,68.8,60.6,30.09,ESE,105,0.0,0.0,75,0.00,,,0.00,Wunderground v.1.15,2013-07-05 02:45:00,
2013-07-04 21:50:00,68.6,60.7,30.09,ESE,105,0.0,0.0,76,0.00,,,0.00,Wunderground v.1.15,2013-07-05 02:50:00,
2013-07-04 22:00:00,68.3,60.8,30.09,ESE,105,0.0,0.0,77,0.00,,,0.00,Wunderground v.1.15,2013-07-05 03:00:00,
2013-07-04 22:10:00,68.0,60.5,30.09,ESE,105,0.0,0.0,77,0.00,,,0.00,Wunderground v.1.15,2013-07-05 03:10:00,
2013-07-04 22:15:00,67.8,60.7,30.09,ESE,105,0.0,0.0,78,0.00,,,0.00,Wunderground v.1.15,2013-07-05 03:15:00,
2013-07-04 22:20:00,67.6,60.5,30.10,ESE,105,0.0,0.0,78,0.00,,,0.00,Wunderground v.1.15,2013-07-05 03:20:00,
2013-07-04 22:30:00,67.4,60.7,30.09,ESE,105,0.0,0.0,79,0.00,,,0.00,Wunderground v.1.15,2013-07-05 03:30:00,
2013-07-04 22:35:00,67.2,60.5,30.09,ESE,105,0.0,0.0,79,0.00,,,0.00,Wunderground v.1.15,2013-07-05 03:35:00,
2013-07-04 22:45:00,67.0,60.6,30.10,ESE,105,0.0,0.0,80,0.00,,,0.00,Wunderground v.1.15,2013-07-05 03:45:00,
2013-07-04 22:50:00,66.9,60.5,30.10,ESE,105,0.0,0.0,80,0.00,,,0.00,Wunderground v.1.15,2013-07-05 03:50:00,
2013-07-04 22:55:00,66.8,60.4,30.10,ESE,105,0.0,0.0,80,0.00,,,0.00,Wunderground v.1.15,2013-07-05 03:55:00,
2013-07-04 23:05:00,66.6,60.6,30.10,ESE,105,0.0,0.0,81,0.00,,,0.00,Wunderground v.1.15,2013-07-05 04:05:00,
2013-07-04 23:10:00,66.5,60.5,30.10,ESE,105,0.0,0.0,81,0.00,,,0.00,Wunderground v.1.15,2013-07-05 04:10:00,
2013-07-04 23:20:00,66.2,60.5,30.10,ESE,105,0.0,0.0,82,0.00,,,0.00,Wunderground v.1.15,2013-07-05 04:20:00,
2013-07-04 23:25:00,66.1,60.4,30.10,ESE,105,0.0,0.0,82,0.00,,,0.00,Wunderground v.1.15,2013-07-05 04:25:00,
2013-07-04 23:30:00,65.9,60.6,30.10,ESE,105,0.0,0.0,83,0.00,,,0.00,Wunderground v.1.15,2013-07-05 04:30:00,
2013-07-04 23:35:00,65.8,60.5,30.10,ESE,105,0.0,0.0,83,0.00,,,0.00,Wunderground v.1.15,2013-07-05 04:35:00,
2013-07-04 23:45:00,65.7,60.4,30.10,ESE,105,0.0,0.0,83,0.00,,,0.00,Wunderground v.1.15,2013-07-05 04:45:00,
2013-07-04 23:50:00,65.6,60.3,30.10,ESE,105,0.0,0.0,83,0.00,,,0.00,Wunderground v.1.15,2013-07-05 04:50:00,